CZ-3B DEB, 41119

Orbit data source: Space-Track

CZ-3B DEB, 41119 is space debris in HEO originally from a launch on Mon, 19 Dec 2011 UTC launched from the Xichang Space Center, China (XSC). Debris objects in space refer to the collection of defunct objects orbiting the Earth. Examples of debris include non-operational satellites, rocket bodies, and fragments generated from explosions, collisions, or faulty payload assembly.

Loading next visibility...
Identifier
41119, 2011-077AJ
Orbit
HEO
Country
Flag of CNCN / PRC
Related business
Manufacturer
CALT
Mission
Spacecraft
Bus & Motor
Unknown
Mass
Unknown
Launch date (UTC)
2011-12-19 (15 years ago)
Launch vehicle
Unknown
Launch site
Xichang Space Center, China (XSC)
Object type
Payload
Rocket body
Debris
Shape & HBR
Unknown shape, 0.2 m
Radar Cross Section
Medium (>0.1 m² and <1 m²)

Expand to show TLE details & history
Last TLE update: 2 weeks ago

TLE from 2 weeks ago
0 CZ-3B DEB
1 41119U 11077AJ  26246.46782685 -.00000066  00000-0  00000+0 0  9990
2 41119  22.7700 343.6171 7280558 281.6941  11.6134  1.69772271 72330
Epoch: 2026-09-03T11:13Z
TLE epoch observation values (Epoch: 2026-09-03T11:13:40.239Z)
Latitude
0.00001°
Longitude
-167.37278°
Altitude
5,823.027 km
Speed
7.205 km/s
True Right ascension
22h 54m 36s
True Declination
0° 00' 00"
Sunlit
Object was in full shadow at epoch
Visualization orbit readout
Latitude
Unknown
Longitude
Unknown
Altitude
Unknown
Speed
Unknown
Apparent Right ascension
Unknown
Apparent Declination
Unknown
Sunlit
N/A
Visualization observer readout
Local Sidereal Time
11:58:45
Azimuth
Unknown
Elevation
Unknown
Doppler factor
Unknown
Orbital elements
Apogee altitude
44,919.924 km
Perigee altitude
1,694.641 km
Semi-major axis
29,685.419 km
Eccentricity
0.72806
Inclination
22.77°
RAAN
343.6171°
Arg. of periapsis
281.6941°
True anomaly
79.17391°
Mean anomaly
11.6134°
Eccentric anomaly
36.32165°
Mean motion
0.42435 °/min
Orbital period
848.35 mins
BSTAR
0
Loading maneuver chart data...
Computing Atmospheric mass density...
Loading historical data...
Loading historical data...
Loading historical data...
Loading historical data...
Loading historical data...
Loading historical data...
Loading historical data...

Documentation

Showing up to 5 results
|